Location: Wald
(31.7579°N, 86.6655°W)
Time: 21:13:20
(UTC+00:00)

Cosmos 841 Rocket - Pass Details

Date: 14 July 2020
Orbit: 747 x 772 km, 74.0° (Epoch: 13 August)

Event Time Altitude Azimuth Distance (km) Brightness Sun altitude
Rises 09:34:48 0° 345° (NNW) 3,204 7.0 -14.7°
Reaches altitude 10° 09:37:10 10° 347° (NNW) 2,280 6.3 -14.3°
Maximum altitude 09:42:20 77° 74° (ENE) 780 3.6 -13.4°
Drops below altitude 10° 09:47:31 10° 160° (SSE) 2,283 5.8 -12.5°
Sets 09:49:53 0° 161° (SSE) 3,209 6.6 -12.1°
